Main page
Satellite images Climate Cyclones Lightning AirportsFAQ Languages Contact Newsletter About
Weather : Europe Africa North America South America Asia Australia-Oceania Others

, Sanya, Sanya Phoenix International Airport

latitude: , longitude: China, elevation: 18-18N m


METAR: ZJSY 241300Z 10004MPS 9999 FEW050 24/20 Q1016 NOSIG